Effective Sunday, March 17, 2024, the National Weather Service National Data Buoy Center will discontinue its Dial-A-Buoy Interactive Voice Response system. For more information, see Service Change Notice 24-06 (PDF).

Station 42056 (LLNR 80) - Yucatan Basin - 120 NM ESE of Cozumel, MX Image indicating link to RSS feed of recent meteorological observations for station 42056


Conditions at 42056 as of
(4:10 pm EST)
2110 GMT on 03/03/2024:
     

Click on the graph icon in the table below to see a time series plot of the last five days of that observation.

5-day plot - Wind Direction Wind Direction (WDIR): SE ( 130 deg true )
5-day plot - Wind Speed Wind Speed (WSPD): 9.7 kts
5-day plot - Wind Gust Wind Gust (GST): 13.6 kts
5-day plot - Wave Height Wave Height (WVHT): 3.3 ft
5-day plot - Average Wave Period Average Period (APD): 4.5 sec
5-day plot - Mean Wave Direction Mean Wave Direction (MWD): E ( 88 deg true )
5-day plot - Atmospheric Pressure Atmospheric Pressure (PRES):29.91 in
5-day plot - Air Temperature Air Temperature (ATMP): 80.8 °F
5-day plot - Dew Point Dew Point (DEWP): 75.9 °F
5-day plot - Heat Index Heat Index (HEAT): 86.9 °F
5-day plot - Wind Speed at 10 Meters Wind Speed at 10 meters (WSPD10M): 11.7 kts
5-day plot - Wind Speed at 20 Meters Wind Speed at 20 meters (WSPD20M): 11.7 kts
5-day plot -  Wind Speed, Wind Gust and Atmospheric Pressure Combined plot of Wind Speed, Gust, and Air Pressure
Supplemental Measurements
Highest 1-minute Wind Speed
Time (EST)5-day plot - 1-Minute Wind Speed WSPD 5-day plot - 1-Minute Wind Direction WDIR
4:02 pm 11.7 kts-
Previous observations
TIME
(EST)
5-day plot - Wind Direction
WDIR
 
5-day plot - Wind Speed
WSPD
kts
5-day plot - Wind Gust
GST
kts
5-day plot - Wave Height
WVHT
ft
5-day plot - Dominant Wave Period
DPD
sec
5-day plot - Average Wave Period
APD
sec
5-day plot - Mean Wave Direction
MWD
 
5-day plot - Atmospheric Pressure
PRES
in
5-day plot - Pressure Tendency
PTDY
in
5-day plot - Air Temperature
ATMP
°F
5-day plot - Water Temperature
WTMP
°F
5-day plot - Dew Point
DEWP
°F
5-day plot - Salinity
SAL
psu
5-day plot - Visibility
VIS
nmi
5-day plot - Tide (above MLLW)
TIDE
ft
2024-03-03 04:00 pm SE 9.7 11.7----29.91-0.04 80.8- 76.1---
2024-03-03 03:50 pm SE 9.7 13.6 3.3 84.5 NE29.91- 80.8- 75.9---
2024-03-03 03:40 pm SE 11.7 13.6 3.3-4.5 NE29.91- 80.8- 76.1---
2024-03-03 03:30 pm SE 11.7 13.6----29.91- 80.8- 75.9---
2024-03-03 03:20 pm SE 11.7 15.5 3.3 84.4ENE29.91- 80.8- 75.9---
2024-03-03 03:10 pm SE 11.7 15.5 3.3-4.4ENE29.91- 80.6- 75.7---
2024-03-03 03:00 pm SE 11.7 13.6----29.92-0.05 80.8- 76.3---
2024-03-03 02:50 pm SE 11.7 15.5 3.6 84.3ESE29.91- 80.6- 75.7---
2024-03-03 02:40 pm SE 11.7 13.6----29.92- 80.6- 75.9---
2024-03-03 02:30 pm SE 11.7 13.6----29.93- 80.8- 76.3---
2024-03-03 02:20 pm SE 11.7 13.6 3.6 94.5ENE29.93- 80.8- 76.3---
2024-03-03 02:10 pm SE 11.7 15.5 3.6-4.5ENE29.93- 80.6- 76.3---
2024-03-03 02:00 pm SE 11.7 15.5----29.93-0.05 80.6- 76.3---
2024-03-03 01:50 pm SE 13.6 15.5 3.3 74.3ESE29.94- 80.6- 76.3---
2024-03-03 01:40 pm SE 13.6 15.5----29.94- 80.6- 76.3---
2024-03-03 01:30 pm SE 13.6 15.5----29.94- 80.6- 76.3---
2024-03-03 01:20 pm SE 13.6 15.5 3.6 84.2 SE29.95- 80.6- 76.3---
2024-03-03 01:10 pm SE 13.6 17.5 3.6-4.2 SE29.95- 80.6- 76.3---
2024-03-03 01:00 pm SE 15.5 17.5----29.95-0.04 80.6- 76.3---
2024-03-03 12:50 pm SE 15.5 17.5 3.6 94.4 NW29.95- 80.4- 76.1---
2024-03-03 12:40 pm SE 15.5 17.5----29.96- 80.6- 76.1---
2024-03-03 12:30 pm SE 15.5 17.5----29.96- 80.6- 76.1---
2024-03-03 12:20 pm SE 15.5 19.4 3.6 84.3 SE29.96- 80.6- 76.1---
2024-03-03 12:10 pm SE 15.5 19.4 3.6-4.3 SE29.96- 80.6- 76.1---
2024-03-03 12:00 pm SE 15.5 19.4----29.97-0.02 80.6- 76.1---
2024-03-03 11:50 am SE 17.5 21.4 3.9 84.4 E29.96- 80.6- 76.1---
2024-03-03 11:40 am SE 15.5 19.4 3.9-4.4 E29.97- 80.4- 76.1---
2024-03-03 11:30 am SE 15.5 17.5----29.98- 80.4- 76.3---
2024-03-03 11:20 amESE 15.5 17.5 3.6 84.4 SE29.98- 80.4- 76.3---
2024-03-03 11:10 amESE 15.5 19.4 3.6-4.4 SE29.98- 80.4- 76.5---
2024-03-03 11:00 amESE 15.5 17.5----29.98+0.02 80.4- 76.3---
2024-03-03 10:50 amESE 15.5 19.4 3.3 84.4ENE29.99- 80.2- 76.3---
2024-03-03 10:40 amESE 15.5 19.4----29.99- 80.4- 76.5---
2024-03-03 10:30 amESE 15.5 19.4----29.99- 80.4- 76.3---
2024-03-03 10:20 amESE 15.5 19.4 3.6 74.5ENE29.99- 80.4- 76.1---
2024-03-03 10:10 amESE 15.5 19.4 3.6-4.5ENE29.99- 80.2- 76.1---
2024-03-03 10:00 amESE 15.5 19.4----29.99+0.04 80.2- 76.3---
2024-03-03 09:50 amESE 15.5 19.4 3.3 84.4 SE29.99- 80.2- 76.5---
2024-03-03 09:40 amESE 15.5 17.5----29.99- 80.1- 76.5---
2024-03-03 09:30 amESE 15.5 19.4----29.99- 80.1- 76.3---
2024-03-03 09:20 amESE 15.5 17.5 3.3 84.6 NE29.99- 80.1- 76.3---
2024-03-03 09:10 amESE 15.5 17.5----29.99- 80.2- 76.3---
2024-03-03 09:00 amESE 13.6 17.5----29.98+0.04 80.2- 75.9---
2024-03-03 08:50 amESE 13.6 17.5 3.3 84.6SSE29.98- 80.1- 75.9---
2024-03-03 08:40 amESE 13.6 15.5----29.98- 80.2- 76.3---
2024-03-03 08:30 amESE 15.5 17.5----29.97- 80.1- 75.9---
2024-03-03 08:20 amESE 13.6 17.5 3.3 74.5ENE29.97- 80.1- 76.1---
2024-03-03 08:10 amESE 15.5 17.5 3.3-4.5ENE29.97- 80.1- 75.9---
2024-03-03 08:00 amESE 13.6 17.5----29.97+0.03 79.9- 76.3---
2024-03-03 07:50 amESE 15.5 19.4 3.3 84.6NNW29.96- 79.9- 76.3---
2024-03-03 07:40 amESE 15.5 17.5----29.96- 79.9- 76.5---
2024-03-03 07:30 amESE 15.5 17.5----29.96- 79.7- 75.9---
2024-03-03 07:20 amESE 13.6 17.5 3.6 74.8 E29.96- 79.7- 75.9---
2024-03-03 07:10 amESE 13.6 17.5 3.6-4.8 E29.95- 79.7- 76.1---
2024-03-03 07:00 amESE 13.6 17.5----29.95+0.00 79.7- 75.9---
2024-03-03 06:50 amESE 15.5 17.5 3.3 84.7 SE29.95- 79.7- 75.9---
2024-03-03 06:40 amESE 15.5 17.5----29.95- 79.7- 75.9---
2024-03-03 06:30 amESE 15.5 17.5----29.95- 79.7- 75.9---
2024-03-03 06:20 am E 13.6 15.5 3.3 84.9SSE29.95- 79.5- 75.9---
2024-03-03 06:10 am E 13.6 15.5 3.3-4.9SSE29.95- 79.7- 75.9---
2024-03-03 06:00 amESE 13.6 15.5----29.95+0.00 79.7- 75.7---
2024-03-03 05:50 amESE 13.6 15.5 3.3 84.8 SE29.95- 79.7- 75.6---
2024-03-03 05:40 amESE 11.7 15.5----29.95- 79.7- 75.7---
2024-03-03 05:30 amESE 11.7 13.6----29.94- 79.7- 75.7---
2024-03-03 05:20 amESE 11.7 13.6 3.3 85.0 W29.94- 79.5- 75.6---
2024-03-03 05:10 amESE 11.7 13.6 3.3-5.0 W29.94- 79.7- 75.9---
2024-03-03 05:00 amESE 11.7 13.6----29.94-0.04 79.7- 75.6---
2024-03-03 04:50 amESE 11.7 13.6 3.3 84.9 S29.94- 79.7- 75.7---
2024-03-03 04:40 amESE 11.7 15.5----29.94- 79.7- 75.7---
2024-03-03 04:30 amESE 11.7 13.6----29.94- 79.5- 75.6---
2024-03-03 04:20 am E 11.7 13.6 3.3 84.9 SE29.94- 79.7- 75.7---
2024-03-03 04:10 amESE 11.7 13.6 3.3-4.9 SE29.94- 79.7- 75.7---
2024-03-03 04:00 amESE 11.7 13.6----29.94-0.04 79.7- 75.9---
2024-03-03 03:50 amESE 11.7 13.6 3.3 84.8 E29.94- 79.7- 75.7---
2024-03-03 03:40 amESE 11.7 13.6 3.3-4.8 E29.94- 79.9- 75.7---
2024-03-03 03:30 amESE 11.7 13.6----29.94- 79.7- 75.4---
2024-03-03 03:20 am E 11.7 13.6 3.3 74.8 E29.95- 79.9- 75.9---
2024-03-03 03:10 amESE 11.7 13.6 3.3-4.8 E29.95- 79.7- 75.6---
2024-03-03 03:00 amESE 11.7 13.6----29.95-0.05 79.9- 75.7---
2024-03-03 02:50 amESE 11.7 13.6 3.0 84.8ESE29.95- 79.9- 75.7---
2024-03-03 02:40 amESE 11.7 13.6----29.96- 79.9- 75.7---
2024-03-03 02:30 amESE 11.7 13.6----29.96- 79.9- 75.7---
2024-03-03 02:20 am E 9.7 13.6 3.0 84.6 N29.96- 79.9- 75.9---
2024-03-03 02:10 amESE 11.7 13.6----29.97- 79.9- 75.9---
2024-03-03 02:00 am E 11.7 13.6----29.97-0.03 80.1- 76.3---
2024-03-03 01:50 amESE 9.7 13.6 3.3 85.0 E29.98- 80.1- 76.1---
2024-03-03 01:40 amESE 11.7 13.6----29.98- 80.1- 75.7---
2024-03-03 01:30 amESE 11.7 13.6----29.98- 80.1- 75.9---
2024-03-03 01:20 amESE 11.7 15.5 3.3 84.9ENE29.98- 80.2- 75.9---
2024-03-03 01:10 amESE 11.7 13.6----29.98- 80.2- 76.1---
2024-03-03 01:00 amESE 11.7 13.6----29.98-0.02 80.2- 76.3---
2024-03-03 12:50 amESE 11.7 13.6 3.3 85.0ENE29.99- 80.2- 76.3---
2024-03-03 12:40 amESE 11.7 13.6----29.99- 80.2- 76.1---
2024-03-03 12:30 amESE 11.7 13.6----29.99- 80.2- 76.5---
2024-03-03 12:20 am SE 11.7 13.6 3.0 84.9 NE29.99- 80.2- 76.3---
2024-03-03 12:10 amESE 11.7 13.6 3.0-4.9 NE29.99- 80.2- 76.3---
2024-03-03 12:00 amESE 9.7 13.6----29.99+0.00 80.2- 76.3---
2024-03-02 11:50 pmESE 9.7 11.7 3.3 85.0ENE29.99- 80.2- 76.1---
2024-03-02 11:40 pmESE 9.7 13.6----29.99- 80.2- 76.3---
2024-03-02 11:30 pm SE 11.7 13.6----29.99- 80.4- 76.3---
2024-03-02 11:20 pm SE 11.7 13.6 3.3 84.9 E29.99- 80.4- 75.9---
2024-03-02 11:10 pm SE 11.7 13.6 3.3-4.9 E30.00- 80.4- 75.9---
2024-03-02 11:00 pm SE 11.7 13.6----30.00+0.03 80.4- 75.7---
2024-03-02 10:50 pm SE 11.7 13.6 3.3 84.8ENE30.00- 80.4- 75.9---
2024-03-02 10:40 pm SE 11.7 13.6----30.00- 80.4- 76.1---
2024-03-02 10:30 pm SE 11.7 13.6----30.00- 80.4- 75.9---
2024-03-02 10:20 pm SE 11.7 13.6 3.3 85.1ENE30.00- 80.4- 75.9---
2024-03-02 10:10 pm SE 11.7 15.5 3.3-5.1ENE30.00- 80.4- 75.9---
2024-03-02 10:00 pm SE 11.7 13.6----30.00+0.03 80.4- 75.7---
2024-03-02 09:50 pm SE 11.7 13.6 3.3 85.0ENE30.00- 80.4- 75.9---
2024-03-02 09:40 pm SE 11.7 13.6----30.00- 80.4- 75.9---
2024-03-02 09:30 pm SE 11.7 13.6----30.00- 80.4- 75.9---
2024-03-02 09:20 pm SE 11.7 15.5 3.3 84.9 NE29.99- 80.4- 75.7---
2024-03-02 09:10 pm SE 11.7 13.6 3.3-4.9 NE29.99- 80.4- 75.7---
2024-03-02 09:00 pm SE 11.7 15.5----29.99+0.02 80.4- 75.7---
2024-03-02 08:50 pm SE 11.7 13.6 3.3 85.0 NE29.98- 80.2- 75.6---
2024-03-02 08:40 pm SE 11.7 15.5----29.98- 80.2- 75.7---
2024-03-02 08:30 pmESE 11.7 15.5----29.98- 80.4- 75.9---
2024-03-02 08:20 pmESE 11.7 15.5 3.3 85.1 NE29.98- 80.4- 75.9---
2024-03-02 08:10 pmESE 11.7 13.6 3.3-5.1 NE29.98- 80.4- 75.4---
2024-03-02 08:00 pmESE 11.7 15.5----29.98+0.02 80.6- 75.4---
2024-03-02 07:50 pmESE 11.7 15.5 3.0 85.1 E29.98- 80.6- 75.4---
2024-03-02 07:40 pmESE 11.7 13.6 3.0-5.1 E29.97- 80.4- 75.2---
2024-03-02 07:30 pmESE 11.7 13.6----29.97- 80.6- 75.0---
2024-03-02 07:20 pmESE 11.7 13.6 3.3 85.1 E29.96- 80.6- 75.2---
2024-03-02 07:10 pmESE 11.7 13.6 3.3-5.1 E29.97- 80.6- 74.8---
2024-03-02 07:00 pmESE 9.7 11.7----29.97-0.01 80.6- 74.8---
2024-03-02 06:50 pmESE 11.7 13.6 3.0 85.2ESE29.97- 80.6- 75.0---
2024-03-02 06:40 pm SE 11.7 13.6----29.96- 80.8- 75.0---
2024-03-02 06:10 pm SE 11.7 13.6 3.3-5.2ENE29.96- 80.8- 75.2---
2024-03-02 06:00 pm SE 11.7 13.6----29.96-0.01 80.8- 75.2---
2024-03-02 05:50 pm SE 11.7 13.6 3.0 85.3 E29.96- 80.8- 75.7---
2024-03-02 05:40 pm SE 11.7 13.6 3.0-5.3 E29.96- 81.0- 75.7---
2024-03-02 05:30 pm SE 11.7 13.6----29.96- 80.8- 75.9---
2024-03-02 05:20 pm SE 11.7 13.6 3.3 85.3 SE29.96- 80.8- 76.3---
2024-03-02 05:10 pm SE 11.7 13.6 3.3-5.3 SE29.95- 80.8- 76.1---
2024-03-02 05:00 pm SE 11.7 13.6----29.95-0.05 80.8- 76.1---
2024-03-02 04:50 pm SE 11.7 13.6 3.0 85.3ESE29.96- 80.8- 76.1---
2024-03-02 04:40 pm SE 9.7 11.7 3.0-5.3ESE29.96- 80.8- 75.9---
2024-03-02 04:30 pm SE 9.7 11.7----29.96- 80.8- 76.1---
2024-03-02 04:20 pm SE 9.7 11.7 3.3 85.4 E29.97- 81.0- 75.9---
2024-03-02 04:10 pm SE 7.8 9.7 3.3-5.4 E29.97- 81.0- 75.9---
2024-03-02 04:00 pm SE 7.8 9.7----29.97-0.05 80.8- 75.6---
2024-03-02 03:50 pm SE 9.7 11.7 3.0 85.2 E29.97- 80.8- 75.7---

Detailed Wave Summary
for 42056 as of (4:10 pm EST)
2110 GMT on 03/03/2024:

These wave data are displayed in rounded times.

     

Click on the graph icon in the table below to see a time series plot of the last five days of that observation.

5-day plot - Significant Wave Height Significant Wave Height (WVHT): 3.3 ft
5-day plot - Swell Height Swell Height (SwH): 2.3 ft
5-day plot - Swell Period Swell Period (SwP): 8.3 sec
5-day plot - Swell Direction Swell Direction (SwD): E
5-day plot - Wind Wave Height Wind Wave Height (WWH): 2.3 ft
5-day plot - Wind Wave Period Wind Wave Period (WWP): 4.3 sec
5-day plot - Wind Wave Direction Wind Wave Direction (WWD): NE
5-day plot - Wave Steepness Wave Steepness (STEEPNESS): SWELL
5-day plot - Average Wave Period Average Wave Period (APD): 4.5 sec
Previous observations
TIME
(EST)
5-day plot - Wave Height
WVHT
ft
5-day plot - Swell Height
SwH
ft
5-day plot - Swell Period
SwP
sec
5-day plot - Swell Direction
SwD
 
5-day plot - Wind Wave Height
WWH
ft
5-day plot - Wind Wave Period
WWP
sec
5-day plot - Wind Wave Direction
WWD
 
5-day plot - Wave Steepness
STEEPNESS
 
5-day plot - Average Wave Period
APD
sec
2024-03-03 03:40 pm 3.3 2.3 8.3 NE 2.6 5.0 ESE AVERAGE 4.5
2024-03-03 03:10 pm 3.3 2.3 8.3ENE 2.6 4.5 E AVERAGE 4.4
2024-03-03 02:40 pm 3.6 2.0 7.7ESE 3.0 4.2 E AVERAGE 4.3
2024-03-03 02:10 pm 3.6 2.3 9.1ENE 3.0 4.0 NE AVERAGE 4.5
2024-03-03 01:40 pm 3.3 2.0 7.1ESE 3.0 5.9 NE AVERAGE 4.3
2024-03-03 01:10 pm 3.6 2.0 8.3 SE 3.0 3.8 SE AVERAGE 4.2
2024-03-03 12:40 pm 3.6 2.3 9.1 NW 3.0 4.2 NNW AVERAGE 4.4
2024-03-03 12:10 pm 3.6 2.3 8.3 SE 3.0 4.0 S AVERAGE 4.3
2024-03-03 11:40 am 3.9 2.3 8.3 E 3.0 5.0 ENE AVERAGE 4.4
2024-03-03 11:10 am 3.6 2.3 8.3 SE 2.6 4.3 E AVERAGE 4.4
2024-03-03 10:40 am 3.3 2.0 7.7ENE 2.6 6.2 W AVERAGE 4.4
2024-03-03 10:10 am 3.6 2.3 7.1ENE 3.0 5.9 NE AVERAGE 4.5
2024-03-03 09:40 am 3.3 2.3 8.3 SE 2.6 3.7 NE AVERAGE 4.4
2024-03-03 09:10 am 3.3 2.3 8.3 NE 2.6 5.0 NE AVERAGE 4.6
2024-03-03 08:40 am 3.3 2.3 7.7SSE 2.6 5.6 NE AVERAGE 4.6
2024-03-03 08:10 am 3.3 2.3 7.1ENE 2.3 5.6 ENE AVERAGE 4.5
2024-03-03 07:40 am 3.3 2.3 7.7NNW 2.3 5.0 NE AVERAGE 4.6
2024-03-03 07:10 am 3.6 2.6 7.1 E 2.3 5.0 NE AVERAGE 4.8
2024-03-03 06:40 am 3.3 2.3 8.3 SE 2.6 6.2 NE AVERAGE 4.7
2024-03-03 06:10 am 3.3 2.3 7.7SSE 2.6 5.9 NE AVERAGE 4.9
2024-03-03 05:40 am 3.3 2.3 8.3 SE 2.3 5.9 NNE SWELL 4.8
2024-03-03 05:10 am 3.3 2.6 7.7 W 2.3 4.5 E AVERAGE 5.0
2024-03-03 04:40 am 3.3 2.6 8.3 S 2.3 5.3 NE SWELL 4.9
2024-03-03 04:10 am 3.3 2.3 8.3 SE 2.0 4.5 ESE SWELL 4.9
2024-03-03 03:40 am 3.3 2.6 8.3 E 2.0 5.3 ENE SWELL 4.8
2024-03-03 03:10 am 3.3 2.6 7.1 E 2.0 4.5 S AVERAGE 4.8
2024-03-03 02:40 am 3.0 2.3 8.3ESE 2.0 5.0 SSW SWELL 4.8
2024-03-03 02:10 am 3.0 2.3 7.7 N 2.0 4.2 E AVERAGE 4.6
2024-03-03 01:40 am 3.3 2.6 7.7 E 2.0 4.3 NE AVERAGE 5.0
2024-03-03 01:10 am 3.3 2.6 8.3ENE 2.0 3.8 ENE SWELL 4.9
2024-03-03 12:40 am 3.3 2.6 8.3ENE 1.6 4.3 SE SWELL 5.0
2024-03-03 12:10 am 3.0 2.6 7.7 NE 1.6 3.8 NE AVERAGE 4.9
2024-03-02 11:40 pm 3.3 2.6 8.3ENE 1.6 3.4 ENE SWELL 5.0
2024-03-02 11:10 pm 3.3 2.6 8.3 E 2.0 5.0 ENE SWELL 4.9
2024-03-02 10:40 pm 3.3 2.6 8.3ENE 2.0 4.8 ENE SWELL 4.8
2024-03-02 10:10 pm 3.3 2.6 8.3ENE 2.0 5.9 ENE SWELL 5.1
2024-03-02 09:40 pm 3.3 2.6 8.3ENE 1.6 4.8 NE SWELL 5.0
2024-03-02 09:10 pm 3.3 2.3 8.3 NE 2.0 5.6 ENE SWELL 4.9
2024-03-02 08:40 pm 3.3 2.6 8.3 NE 2.0 5.9 NE SWELL 5.0
2024-03-02 08:10 pm 3.3 2.6 8.3 NE 2.0 4.5 NE SWELL 5.1
2024-03-02 07:40 pm 3.0 2.6 8.3 E 1.6 5.6 ENE SWELL 5.1
2024-03-02 07:10 pm 3.3 2.6 8.3 E 1.6 4.5 ENE SWELL 5.1
2024-03-02 06:40 pm 3.0 2.6 8.3ESE 1.6 5.3 NE SWELL 5.2
2024-03-02 06:10 pm 3.3 3.0 8.3ENE 1.6 5.0 ENE SWELL 5.2
2024-03-02 05:40 pm 3.0 2.6 7.7 E 1.6 5.0 ENE AVERAGE 5.3
2024-03-02 05:10 pm 3.3 2.6 8.3 SE 2.0 4.8 N SWELL 5.3
2024-03-02 04:40 pm 3.0 2.6 7.7ESE 1.6 4.0 NE AVERAGE 5.3
2024-03-02 04:10 pm 3.3 3.0 8.3 E 1.3 4.0 NE SWELL 5.4

Plot of wave energy versus frequency (and period)